Location: Ashtead
(51.3000°N, 0.3000°W)
Time: 03:25:12
(UTC+00:00)

COSMOS 2428 - Pass Details

Date: 26 September 2023
Orbit: 843 x 858 km, 70.9° (Epoch: 29 November)

Event Time Altitude Azimuth Distance (km) Brightness Sun altitude
Rises 04:17:58 0° 330° (NNW) 3,416 5.7 -15.5°
Reaches altitude 10° 04:20:27 10° 334° (NNW) 2,479 5.0 -15.1°
Maximum altitude 04:26:06 64° 55° (NE) 941 3.2 -14.2°
Drops below altitude 10° 04:31:45 10° 137° (SE) 2,474 5.5 -13.4°
Sets 04:34:13 0° 141° (SE) 3,408 6.2 -13.0°
